Вернуться в каталог

ATLAS 5 CENTAUR DEB

LostHEO
NORAD 46845·DEBRIS·🇺🇸 United States

Запущен Oct 17, 2018 с Cape Canaveral Space Force Station

Loading…

Ближайшие Пролёты (ближайшие 24 часа)

TLE

УстаревшееSource: Space-Track

Эпоха: Aug 12, 2021, 04:05 UTC

1 46845U 18079DA  21224.17033296 -.00000059  00000-0  00000-0 0  9999
2 46845  11.0655 195.2150 4647669  13.2348 355.5572  1.93125363  5878

Отслеживайте ATLAS 5 CENTAUR DEB в реальном времени с AllMySat

Download on the App Store